Flag for Russia Weather past 2 weeks in Surgut, Russia

18 °F

Low clouds.

Feels Like: 4 °F
Forecast: 13 / 22 °F
Wind: 13 mph from South

Location: Surgut Airport

Current Time: Nov 28, 2015 at 4:22:12 AM

Latest Report: Nov 28, 2015 at 3:30 AM

Visibility: 4 mi

Pressure: 29.62 "Hg

Humidity: 93%

Dew point: 16 °F

Location of SurgutLocation

Historic Weather in Surgut — Graph


Surgut temperature yesterday

Maximum temperature yesterday: 21 °F (at 5:00 AM)
Minimum temperature yesterday: 18 °F (at 6:00 PM)
Average temperature yesterday: 20 °F

Past Weeks' High & Low Weather Summary

High23 °F (Nov 26, 3:00 AM)93% (Nov 25, 10:00 AM)30.95 "Hg (Nov 25, 10:00 AM)
Low-17 °F (Nov 21, 1:30 AM)76% (Nov 16, 3:00 AM)29.56 "Hg (Nov 24, 7:00 AM)
Average1 °F83%30.47 "Hg
* Reported Nov 13 3:00 AM — Nov 28 3:00 AM, Surgut, Weather by CustomWeather, © 2015

Note: Actual official high and low records may vary slightly from our data, if they occured in-between our weather recording intervals... More about our weather records


Surgut weather history for previous 24 hours

Time TempWeatherWind HumidityBarometerVisibility
3:00 AM
Sat, Nov 28
18 °FLow clouds.13 mph93%29.65 "Hg4 mi
2:30 AM18 °FLow clouds.13 mph93%29.65 "Hg4 mi
2:00 AM19 °FLow clouds.10 mph86%29.68 "Hg4 mi
1:30 AM18 °FLow clouds.10 mph93%29.68 "Hg4 mi
1:00 AM18 °FLow clouds.10 mph93%29.71 "Hg4 mi
12:30 AM18 °FLow clouds.13 mph93%29.71 "Hg4 mi
12:00 AM18 °FLow clouds.13 mph93%29.71 "Hg4 mi
11:30 PM
Fri, Nov 27
18 °FPassing clouds.10 mph93%29.74 "Hg4 mi
11:00 PM18 °FPassing clouds.10 mph86%29.74 "Hg4 mi
10:30 PM18 °FPassing clouds.10 mph86%29.74 "Hg4 mi
10:00 PM18 °FPassing clouds.13 mph86%29.74 "Hg4 mi
9:30 PM18 °FPassing clouds.13 mph86%29.77 "Hg4 mi
9:00 PM18 °FPassing clouds.10 mph86%29.77 "Hg4 mi
8:30 PM18 °FPassing clouds.13 mph86%29.77 "Hg4 mi
8:00 PM18 °FPassing clouds.10 mph86%29.77 "Hg4 mi
7:30 PM18 °FPassing clouds.15 mph86%29.80 "Hg4 mi
7:00 PM18 °FPassing clouds.15 mph86%29.80 "Hg4 mi
6:30 PM18 °FPassing clouds.13 mph86%29.80 "Hg4 mi
6:00 PM18 °FPassing clouds.13 mph93%29.80 "Hg4 mi
5:30 PM19 °FPassing clouds.13 mph86%29.80 "Hg4 mi
5:00 PM19 °FPassing clouds.13 mph86%29.80 "Hg4 mi
4:30 PM19 °FPassing clouds.10 mph86%29.83 "Hg4 mi
4:00 PM19 °FClear.8 mph86%29.83 "Hg4 mi
3:30 PM19 °FClear.8 mph86%29.83 "Hg4 mi
3:00 PM19 °FClear.8 mph86%29.83 "Hg4 mi
2:30 PM19 °FClear.8 mph86%29.83 "Hg4 mi
2:00 PM19 °FClear.8 mph86%29.83 "Hg4 mi
1:30 PM19 °FClear.8 mph86%29.83 "Hg4 mi
1:00 PM21 °FClear.10 mph80%29.83 "Hg4 mi
11:30 AM21 °FPassing clouds.8 mph86%29.86 "Hg4 mi
11:00 AM21 °FBroken clouds.10 mph86%29.86 "Hg4 mi
10:30 AM21 °FPartly sunny.10 mph86%29.86 "Hg4 mi
10:00 AM21 °FPartly sunny.10 mph86%29.86 "Hg4 mi
9:30 AM21 °FMostly cloudy.8 mph86%29.86 "Hg4 mi
9:00 AM21 °FMostly cloudy.8 mph86%29.86 "Hg4 mi
8:30 AM21 °FMostly cloudy.10 mph86%29.86 "Hg4 mi
8:00 AM21 °FMostly cloudy.8 mph93%29.86 "Hg4 mi
7:30 AM21 °FPassing clouds.8 mph86%29.86 "Hg4 mi
7:00 AM21 °FPassing clouds.8 mph86%29.86 "Hg4 mi
6:30 AM21 °FPassing clouds.8 mph86%29.86 "Hg4 mi
6:00 AM21 °FLow clouds.8 mph86%29.86 "Hg4 mi
5:30 AM21 °FLow clouds.8 mph86%29.86 "Hg4 mi
5:00 AM21 °FLow clouds.8 mph86%29.86 "Hg4 mi
4:30 AM19 °FLight snow. Low clouds.8 mph93%29.86 "Hg4 mi
4:00 AM19 °FLight snow. Low clouds.6 mph93%29.86 "Hg4 mi
Weather by CustomWeather, © 2015

See weather overviewHow to use our weather pages